Regional Weather Roundup
Issued by NWS

Home | Current Version | Previous Version | Graphics & Text | Print | Product List | Glossary Off
Versions: 1 2 3 4 5 6 7 8 9 10 11 12 13 14 15 16 17 18 19 20 21 22 23 24 25 26 27 28 29 30 31 32 33 34 35 36 37 38 39 40 41 42 43 44 45 46 47 48 49 50

000
ASUS43 KDMX 280908
RWRIA

WEATHER ROUNDUP FOR IOWA
NATIONAL WEATHER SERVICE DES MOINES IA
400 AM CDT WED SEP 28 2016

NOTE: "FAIR" INDICATES FEW OR NO CLOUDS BELOW 12,000 FEET WITH NO
SIGNIFICANT WEATHER AND/OR OBSTRUCTIONS TO VISIBILITY.

* - THESE STATIONS ARE NOT NWS STATIONS...THUS NOT UNDER NWS
QUALITY CONTROL.  THEY ALSO DO NOT REPORT WEATHER SUCH
AS PRECIPITATION OR FOG.

IAZ001>003-012>014-020>022-031>034-043>046-281000-
   NORTHWEST IOWA

CITY           SKY/WX    TMP DP  RH WIND       PRES   REMARKS
CARROLL *      CLEAR     48  45  87 N7        29.96R
CHEROKEE *     PTCLDY    45  43  93 N3        30.00R
DENISON *      CLEAR     46  41  81 NE5       29.96R
LE MARS *      PTCLDY    45  41  87 CALM      30.02R
ORANGE CITY *  CLEAR     46  43  87 N7        30.01R
SHELDON *      PTCLDY    46  45  93 N7        30.00R
SIOUX CITY     PTCLDY    46  41  82 NW8       30.01R
SPENCER        CLEAR     46  42  86 N8        30.00R
STORM LAKE *   CLEAR     46  43  87 N7        29.98R
$$

IAZ055>058-069>071-079>083-090>094-281000-
   SOUTHWEST IOWA

CITY           SKY/WX    TMP DP  RH WIND       PRES   REMARKS
ATLANTIC *     CLEAR     48  43  81 N5        29.95R
AUDUBON *      CLEAR     48  43  81 N8        29.96R
CLARINDA *       N/A     52  48  87 MISG      29.94R
COUNCIL BLFS * CLEAR     50  45  81 N7        29.96R
CRESTON *      CLEAR     52  43  71 N10G16    29.93R
HARLAN  *      CLEAR     46  43  87 CALM      29.99R
LAMONI         PTCLDY    53  45  74 N9        29.90R
RED OAK *      CLEAR     48  45  87 N8        29.94R
SHENANDOAH *   CLEAR     54  46  76 N7        29.94R
$$

IAZ047>049-059>061-072>074-084-281000-
   CENTRAL IOWA

CITY           SKY/WX    TMP DP  RH WIND       PRES   REMARKS
AMES           CLEAR     50  46  86 N10       29.93R
ANKENY *         N/A    N/A N/A N/A MISG        N/A
BOONE *        MOCLDY    50  45  81 N13       29.93R
CHARITON *       N/A     54  45  71 N7        29.89R
DES MOINES     MOCLDY    56  43  61 N15       29.91R
GRINNELL*      CLEAR     49  43  79 N8        29.90S
KNOXVILLE *    CLOUDY    55  43  62 N15G22    29.89R
MARSHALLTOWN   CLOUDY    51  45  79 N13       29.91R
NEWTON *       MOCLDY    52  43  71 N12G17    29.91R
PELLA *        CLOUDY    54  44  68 N9G17     29.91R
PERRY *        MOCLDY    51  43  74 N13       29.94R
$$

IAZ004>006-015-016-023>025-035-036-281000-
   NORTH CENTRAL IOWA

CITY           SKY/WX    TMP DP  RH WIND       PRES   REMARKS
ALGONA *       CLOUDY    50  43  76 N13G20    29.97S
CLARION *      CLOUDY    50  45  81 N8        29.95R
ESTHERVILLE    CLOUDY    47  44  90 N12       29.99R
FORT DODGE *   MOCLDY    50  39  66 NW7       29.97R
MASON CITY     CLOUDY    49  43  80 N13       29.96R
FOREST CITY *  CLOUDY    50  43  76 N10       29.96R
WEBSTER CITY * CLOUDY    52  45  76 N12       29.93R
IOWA FALLS *   CLOUDY    51  43  74 N9G20     29.94S
$$

IAZ007>011-017>019-026>030-037>042-050>054-066-281000-
   NORTHEAST IOWA

CITY           SKY/WX    TMP DP  RH WIND       PRES   REMARKS
CEDAR RAPIDS   CLOUDY    51  45  79 N12       29.87R
CHARLES CITY * CLOUDY    50  45  81 N8        29.92R
CLINTON *      PTCLDY    49  45  86 N8        29.84R
DECORAH *      CLOUDY    48  46  93 N8G16     29.89R
DUBUQUE        CLOUDY    48  44  86 N13       29.85R
MONTICELLO *   MOCLDY    50  43  76 NW10      29.85S
OELWEIN *      CLOUDY    48  45  87 N9        29.90R
WATERLOO       CLOUDY    50  43  77 N13       29.90R
$$

IAZ064-065-067-068-078-281000-
   EAST CENTRAL IOWA

CITY           SKY/WX    TMP DP  RH WIND       PRES   REMARKS
DAVENPORT      CLOUDY    52  44  74 N12       29.84R
IOWA CITY      MOCLDY    53  43  68 N18       29.87R
MT. PLEASANT * CLOUDY    58  45  62 N8        29.84R
MUSCATINE *    CLOUDY    55  46  71 N10       29.84R
QUAD CITIES    CLOUDY    55  44  66 N10       29.82R
$$

IAZ062-063-075>077-085>089-095>099-281000-
   SOUTHEAST IOWA

CITY           SKY/WX    TMP DP  RH WIND       PRES   REMARKS
BURLINGTON     CLOUDY    56  44  64 N8        29.81R
FAIRFIELD *    CLOUDY    57  41  54 N10       29.85R
FORT MADISON * CLOUDY    55  45  67 CALM      29.82S
KEOKUK *       CLOUDY    59  43  55 N8        29.81R
OSKALOOSA *    CLOUDY    55  43  66 N13G18    29.88R
OTTUMWA        CLOUDY   N/A N/A N/A N14       29.87R
WASHINGTON *     N/A    N/A N/A N/A MISG        N/A
$$

ABBREVIATIONS USED IN REMARKS
   TC - TEMPERATURES IN CELSIUS
  WCI - WIND CHILL INDEX
   HX - HEAT INDEX
  VSB - VISIBILITY
$$




USA.gov is the U.S. government's official web portal to all federal, state and local government web resources and services.